Flag for Norway Weather past 2 weeks in Stavanger, Norway

Now
64 °F

Passing clouds.


Feels Like: 64 °F
Forecast: 61 / 67 °F
Wind: 1 mph from North

Location: Stavanger / Sola

Current Time: Jul 28, 2014 at 8:28:34 AM

Latest Report: Jul 28, 2014 at 7:50 AM


Visibility: N/A

Pressure: 29.98 "Hg

Humidity: 88%

Dew point: 61 °F

Location of StavangerLocation

Historic Weather in Stavanger — Graph

°F

Stavanger temperature yesterday

Maximum temperature yesterday: 77 °F (at 9:20 AM)
Minimum temperature yesterday: 63 °F (at 4:20 AM)
Average temperature yesterday: 70 °F

Past Weeks' High & Low Weather Summary

 TemperatureHumidityPressure
High84 °F (Jul 20, 3:20 PM)100% (Jul 28, 6:20 AM)30.30 "Hg (Jul 28, 6:20 AM)
Low55 °F (Jul 19, 4:50 AM)37% (Jul 20, 1:20 PM)29.65 "Hg (Jul 14, 12:50 AM)
Average69 °F70%30.04 "Hg
* Reported Jul 13 7:20 AM — Jul 28 7:20 AM, Stavanger, Weather by CustomWeather, © 2014

Note: Actual official high and low records may vary slightly from our data, if they occured in-between our weather recording intervals... More about our weather records

Advertising

Stavanger weather history for previous 24 hours

 ConditionsComfort  
Time TempWeatherWind HumidityBarometerVisibility
7:20 AM
Jul 28
61 °FPassing clouds.5 mph94%29.98 "HgN/A
6:50 AM61 °FPassing clouds.1 mph94%29.95 "HgN/A
6:20 AM59 °FPassing clouds.2 mph100%29.95 "HgN/A
5:50 AM59 °FClear.1 mph94%29.95 "Hg10 mi
4:50 AM61 °FClear.1 mph94%29.95 "Hg10 mi
3:50 AM61 °FClear.2 mph94%29.95 "Hg10 mi
2:50 AM61 °FClear.No wind94%29.95 "Hg10 mi
1:50 AM61 °FClear.2 mph88%29.95 "Hg10 mi
12:50 AM63 °FClear.1 mph88%29.95 "Hg10 mi
12:20 AM64 °FClear.1 mph83%29.95 "Hg10 mi
11:50 PM
Jul 27
64 °FClear.1 mph88%29.92 "Hg10 mi
11:20 PM66 °FClear.No wind83%29.92 "Hg10 mi
10:50 PM66 °FScattered clouds.1 mph83%29.92 "HgN/A
10:20 PM68 °FPartly sunny.2 mph73%29.92 "HgN/A
9:50 PM68 °FPartly sunny.5 mph73%29.92 "HgN/A
9:20 PM70 °FScattered clouds.6 mph69%29.92 "HgN/A
8:50 PM70 °FPartly sunny.6 mph69%29.92 "HgN/A
8:20 PM70 °FScattered clouds.6 mph69%29.92 "HgN/A
7:50 PM72 °FScattered clouds.9 mph65%29.92 "HgN/A
7:20 PM72 °FScattered clouds.7 mph69%29.89 "HgN/A
6:50 PM72 °FScattered clouds.5 mph69%29.89 "HgN/A
6:20 PM72 °FScattered clouds.5 mph73%29.89 "HgN/A
5:50 PM70 °FPartly sunny.3 mph69%29.89 "HgN/A
5:20 PM68 °FPartly sunny.3 mph73%29.89 "HgN/A
4:50 PM68 °FBroken clouds.5 mph78%29.89 "HgN/A
4:20 PM68 °FLight rain. Broken clouds.9 mph78%29.92 "HgN/A
3:50 PM68 °FDrizzle. Broken clouds.5 mph78%29.92 "HgN/A
3:20 PM68 °FDrizzle. Broken clouds.7 mph73%29.92 "HgN/A
2:50 PM73 °FDrizzle. Broken clouds.13 mph57%29.92 "HgN/A
2:20 PM73 °FBroken clouds.9 mph65%29.89 "HgN/A
1:50 PM73 °FMild.7 mph61%29.89 "HgN/A
1:20 PM73 °FBroken clouds.8 mph61%29.89 "HgN/A
12:50 PM73 °FBroken clouds.13 mph65%29.92 "HgN/A
12:20 PM77 °FBroken clouds.8 mph51%29.92 "HgN/A
11:50 AM77 °FBroken clouds.7 mph54%29.92 "HgN/A
11:20 AM75 °FBroken clouds.5 mph61%29.92 "HgN/A
10:50 AM75 °FBroken clouds.6 mph57%29.92 "HgN/A
10:20 AM75 °FBroken clouds.8 mph57%29.92 "HgN/A
9:50 AM72 °FBroken clouds.8 mph69%29.92 "HgN/A
9:20 AM77 °FBroken clouds.2 mph57%29.92 "HgN/A
8:50 AM73 °FScattered clouds.3 mph65%29.92 "HgN/A
8:20 AM73 °FScattered clouds.3 mph65%29.92 "HgN/A
Weather by CustomWeather, © 2014

See weather overviewHow to use our weather pages